EA8URG-10 Weather Reports


Display with metric or nautical units.
time (UTC)temp
F
wind
direction
speed
MPH
gust
MPH
rain 1hr
in
rain 24hr
in
rain mn
in
humidity
%
barometer
mb
20260502222459 66 264 0.0 0.0 0.00 0.00 0.00 70 1013.8
20260502221459 66 248 0.0 0.0 0.00 0.00 0.00 70 1013.8
20260502220308 67 248 0.0 0.0 0.00 0.00 0.00 68 1013.8
20260502215308 67 248 0.0 1.0 0.00 0.00 0.00 68 1013.8
20260502214308 67 0 0.0 0.0 0.00 0.00 0.00 67 1013.8
20260502213308 67 0 0.0 0.0 0.00 0.00 0.00 66 1013.8
20260502212308 67 3 1.0 3.0 0.00 0.00 0.00 66 1013.8
20260502211117 67 6 1.0 3.0 0.00 0.00 0.00 66 1013.8
20260502210117 67 22 1.0 3.0 0.00 0.00 0.00 66 1013.8
20260502205117 68 158 0.0 1.0 0.00 0.00 0.00 65 1013.8
20260502204117 68 165 0.0 0.0 0.00 0.00 0.00 65 1013.8
20260502202748 68 112 0.0 0.0 0.00 0.00 0.00 65 1013.8
20260502201757 68 163 0.0 3.0 0.00 0.00 0.00 66 1013.8
20260502200748 68 129 1.0 3.0 0.00 0.00 0.00 66 1013.8
20260502195748 68 87 0.0 3.0 0.00 0.00 0.00 67 1013.8
20260502194748 68 107 0.0 2.0 0.00 0.00 0.00 66 1013.8
20260502193556 68 125 0.0 2.0 0.00 0.00 0.00 66 1013.8
20260502192557 68 5 0.0 3.0 0.00 0.00 0.00 66 1013.8
20260502191557 69 168 1.0 3.0 0.00 0.00 0.00 65 1013.8
20260502190405 69 160 0.0 2.0 0.00 0.00 0.00 65 1013.8
20260502185405 68 68 0.0 2.0 0.00 0.00 0.00 66 1013.8
20260502184406 68 112 1.0 4.0 0.00 0.00 0.00 66 1013.8
20260502183214 68 79 1.0 3.0 0.00 0.00 0.00 66 1013.8
20260502182213 68 96 1.0 3.0 0.00 0.00 0.00 65 1013.8
20260502181214 68 90 1.0 4.0 0.00 0.00 0.00 64 1013.8
20260502180214 69 98 1.0 5.0 0.00 0.00 0.00 63 1013.8
20260502110953 70 35 3.0 9.0 0.00 0.00 0.00 58 1014.8
20260502105953 70 42 3.0 5.0 0.00 0.00 0.00 58 1014.8
20260502104801 70 31 5.0 9.0 0.00 0.00 0.00 58 1014.8
20260502103802 71 37 3.0 8.0 0.00 0.00 0.00 57 1014.8
20260502102610 69 62 2.0 6.0 0.00 0.00 0.00 60 1014.8
20260502101610 69 78 3.0 11.0 0.00 0.00 0.00 60 1014.8
20260502100610 69 58 5.0 9.0 0.00 0.00 0.00 60 1014.8
20260502091419 72 35 4.0 10.0 0.00 0.00 0.00 53 1014.8
20260502090419 73 115 2.0 5.0 0.00 0.00 0.00 51 1014.8
20260502070711 68 282 1.0 4.0 0.00 0.00 0.00 66 1013.8
20260502065711 65 208 2.0 6.0 0.00 0.00 0.00 71 1013.8
20260502064711 63 202 4.0 6.0 0.00 0.00 0.00 76 1013.8
20260502063711 63 211 3.0 6.0 0.00 0.00 0.00 76 1013.8
20260502062520 63 235 0.0 2.0 0.00 0.00 0.00 77 1012.8
20260502061520 63 250 0.0 2.0 0.00 0.00 0.00 77 1012.8
20260502060520 63 160 0.0 2.0 0.00 0.00 0.00 76 1012.8
20260502055520 63 0 0.0 0.0 0.00 0.00 0.00 75 1012.8
20260502054520 63 245 0.0 1.0 0.00 0.00 0.00 76 1012.8
20260502053520 63 338 0.0 0.0 0.00 0.00 0.00 76 1012.8
20260502052520 63 340 0.0 0.0 0.00 0.00 0.00 75 1012.8
20260502051520 63 338 0.0 0.0 0.00 0.00 0.00 75 1012.8
20260502050520 64 270 0.0 0.0 0.00 0.00 0.00 75 1012.8
20260502045329 64 330 0.0 2.0 0.00 0.00 0.00 74 1013.8
20260502044137 64 328 0.0 1.0 0.00 0.00 0.00 74 1012.8
20260502043137 63 320 0.0 0.0 0.00 0.00 0.00 75 1012.8
20260502042137 64 53 0.0 0.0 0.00 0.00 0.00 75 1012.8
20260502041137 64 340 0.0 1.0 0.00 0.00 0.00 75 1013.8
20260502040137 64 342 0.0 0.0 0.00 0.00 0.00 75 1013.8
20260502035137 64 292 0.0 0.0 0.00 0.00 0.00 75 1013.8
20260502033946 64 298 0.0 1.0 0.00 0.00 0.00 75 1013.8
20260502032946 64 248 0.0 0.0 0.00 0.00 0.00 75 1013.8
20260502031946 64 302 0.0 1.0 0.00 0.00 0.00 75 1013.8
20260502030946 64 302 0.0 2.0 0.00 0.00 0.00 75 1013.8
20260502025946 64 310 0.0 0.0 0.00 0.00 0.00 75 1013.8
20260502024946 64 228 0.0 1.0 0.00 0.00 0.00 74 1013.8
20260502023946 65 338 0.0 1.0 0.00 0.00 0.00 74 1013.8
20260502022755 65 315 0.0 0.0 0.00 0.00 0.00 74 1013.8
20260502021755 65 338 0.0 1.0 0.00 0.00 0.00 73 1013.8
20260502020604 65 348 0.0 1.0 0.00 0.00 0.00 73 1013.8
20260502015603 65 0 0.0 0.0 0.00 0.00 0.00 73 1014.8
20260502014604 65 14 0.0 1.0 0.00 0.00 0.00 72 1014.8
20260502013603 66 329 0.0 2.0 0.00 0.00 0.00 72 1014.8
20260502012603 66 270 0.0 0.0 0.00 0.00 0.00 72 1014.8
20260502011604 66 315 0.0 1.0 0.00 0.00 0.00 71 1014.8
20260502010603 66 335 0.0 1.0 0.00 0.00 0.00 70 1014.8
20260502005603 67 225 0.0 1.0 0.00 0.00 0.00 69 1014.8
20260502004412 67 270 0.0 0.0 0.00 0.00 0.00 69 1014.8
20260502003412 67 225 0.0 2.0 0.00 0.00 0.00 70 1014.8
20260502002412 67 280 0.0 1.0 0.00 0.00 0.00 70 1014.8
20260502001412 67 202 0.0 2.0 0.00 0.00 0.00 69 1014.8
20260502000412 67 180 0.0 2.0 0.00 0.00 0.00 69 1015.9
20260501235412 67 218 0.0 2.0 0.00 0.00 0.00 69 1015.9
20260501234412 67 22 0.0 2.0 0.00 0.00 0.00 69 1015.9
20260501233221 67 22 0.0 3.0 0.00 0.00 0.00 68 1015.9
20260501232221 67 55 0.0 1.0 0.00 0.00 0.00 68 1015.9
20260501231221 67 68 0.0 1.0 0.00 0.00 0.00 68 1015.9
20260501230030 67 68 0.0 2.0 0.00 0.00 0.00 69 1015.9
20260501225030 67 30 1.0 4.0 0.00 0.00 0.00 69 1015.9
20260501224029 67 35 1.0 3.0 0.00 0.00 0.00 68 1015.9
20260501223029 67 34 2.0 3.0 0.00 0.00 0.00 67 1015.9